WHSE22 YBTH-YSHW

Flight info

Callsign WHSE22
Flight time 0h 32m
Altitude 3500
Route DCT
Aircraft H64/M-SGRW/S

Departure

Time 2026-04-16 06:30
Airport Bathurst Airport (YBTH)

Arrival

Time 2026-04-16 07:02
Airport Holsworthy (Military) Airport (YSHW)
Time Latitude Longitude Altitude Speed Heading
2026-04-16 06:16 -33.40593 149.66025 2418 ft 0 kts 102°
2026-04-16 06:23 -33.40593 149.66039 2429 ft 7 kts 108°
2026-04-16 06:23 -33.40615 149.66109 2457 ft 9 kts 125°
2026-04-16 06:23 -33.40635 149.66145 2452 ft 7 kts 146°
2026-04-16 06:24 -33.40649 149.66173 2454 ft 3 kts 174°
2026-04-16 06:24 -33.40664 149.66106 2538 ft 17 kts 247°
2026-04-16 06:24 -33.40676 149.65869 2476 ft 60 kts 265°
2026-04-16 06:24 -33.40940 149.65370 2473 ft 76 kts 232°
2026-04-16 06:25 -33.41105 149.65125 2627 ft 20 kts 246°
2026-04-16 06:25 -33.41165 149.65024 2568 ft 2 kts 253°
2026-04-16 06:25 -33.41196 149.65111 2642 ft 24 kts 282°
2026-04-16 06:25 -33.41366 149.64960 2515 ft 18 kts 235°
2026-04-16 06:26 -33.41331 149.64954 2815 ft 15 kts 299°
2026-04-16 06:26 -33.41106 149.64924 2844 ft 92 kts
2026-04-16 06:26 -33.40833 149.65111 3116 ft 14 kts 10°
2026-04-16 06:26 -33.40875 149.64747 2700 ft 51 kts 250°
2026-04-16 06:27 -33.41220 149.64639 2607 ft 71 kts 163°
2026-04-16 06:27 -33.41446 149.65282 2580 ft 77 kts 104°
2026-04-16 06:27 -33.41580 149.65786 2649 ft 60 kts 125°
2026-04-16 06:27 -33.41774 149.66199 2606 ft 74 kts 127°
2026-04-16 06:28 -33.42013 149.66813 2630 ft 88 kts 121°
2026-04-16 06:28 -33.42229 149.67455 2694 ft 92 kts 112°
2026-04-16 06:28 -33.42467 149.68131 2821 ft 77 kts 120°
2026-04-16 06:28 -33.42734 149.68763 2834 ft 93 kts 114°
2026-04-16 06:29 -33.43037 149.69496 2864 ft 106 kts 116°
2026-04-16 06:29 -33.43415 149.70449 2825 ft 152 kts 110°
2026-04-16 06:29 -33.43807 149.71732 2858 ft 166 kts 104°
2026-04-16 06:29 -33.44226 149.73029 3024 ft 167 kts 110°
2026-04-16 06:30 -33.44675 149.74317 3246 ft 167 kts 108°
2026-04-16 06:30 -33.44989 149.75679 3381 ft 173 kts 101°
2026-04-16 06:30 -33.45288 149.77043 3618 ft 167 kts 103°
2026-04-16 06:30 -33.45523 149.78387 3909 ft 164 kts 92°
2026-04-16 06:31 -33.45577 149.79789 4063 ft 175 kts 88°
2026-04-16 06:31 -33.45617 149.81268 4263 ft 179 kts 94°
2026-04-16 06:31 -33.46046 149.82708 4224 ft 191 kts 109°
2026-04-16 06:31 -33.46915 149.83895 3795 ft 190 kts 143°
2026-04-16 06:32 -33.47584 149.85228 3512 ft 182 kts 129°
2026-04-16 06:32 -33.48425 149.86303 3249 ft 183 kts 142°
2026-04-16 06:32 -33.49421 149.87132 3485 ft 162 kts 156°
2026-04-16 06:32 -33.50024 149.87734 4075 ft 25 kts 124°
2026-04-16 06:33 -33.49987 149.87909 3943 ft 16 kts 356°
2026-04-16 06:33 -33.49911 149.88002 4030 ft 21 kts 349°
2026-04-16 06:33 -33.49848 149.88192 4165 ft 25 kts 137°
2026-04-16 06:33 -33.49850 149.88181 4204 ft 18 kts 181°
2026-04-16 06:34 -33.49939 149.88128 4178 ft 9 kts 210°
2026-04-16 06:34 -33.49955 149.88121 4113 ft 1 kts 182°
2026-04-16 06:34 -33.49945 149.88147 4123 ft 4 kts 177°
2026-04-16 06:34 -33.49946 149.88222 4128 ft 28 kts 124°
2026-04-16 06:35 -33.49937 149.88635 3762 ft 114 kts 53°
2026-04-16 06:35 -33.50019 149.89676 3423 ft 140 kts 105°
2026-04-16 06:35 -33.50479 149.90744 3481 ft 145 kts 114°
2026-04-16 06:35 -33.51227 149.91620 3349 ft 159 kts 129°
2026-04-16 06:36 -33.51962 149.92620 3332 ft 160 kts 128°
2026-04-16 06:36 -33.52772 149.93505 3388 ft 155 kts 144°
2026-04-16 06:36 -33.53681 149.94130 3471 ft 147 kts 149°
2026-04-16 06:36 -33.54564 149.94705 3624 ft 144 kts 152°
2026-04-16 06:37 -33.55451 149.95348 3649 ft 155 kts 147°
2026-04-16 06:37 -33.56360 149.96074 3673 ft 158 kts 147°
2026-04-16 06:37 -33.57326 149.96641 3691 ft 153 kts 154°
2026-04-16 06:37 -33.58302 149.97219 3626 ft 156 kts 155°
2026-04-16 06:38 -33.59306 149.97659 3681 ft 151 kts 162°
2026-04-16 06:38 -33.60299 149.98096 3607 ft 158 kts 157°
2026-04-16 06:38 -33.61248 149.98217 3500 ft 127 kts 192°
2026-04-16 06:38 -33.62058 149.98573 3527 ft 113 kts 167°
2026-04-16 06:39 -33.62912 149.98981 3363 ft 144 kts 152°
2026-04-16 06:39 -33.63083 149.99809 3580 ft 86 kts 94°
2026-04-16 06:39 -33.63256 150.00257 3678 ft 44 kts 129°
2026-04-16 06:39 -33.63451 150.00531 3935 ft 34 kts 153°
2026-04-16 06:40 -33.63551 150.00726 4125 ft 11 kts 141°
2026-04-16 06:40 -33.63516 150.00780 4150 ft 12 kts 148°
2026-04-16 06:40 -33.63493 150.00757 4108 ft 2 kts 158°
2026-04-16 06:40 -33.63528 150.00744 4183 ft 16 kts 181°
2026-04-16 06:41 -33.63606 150.00747 4239 ft 9 kts 192°
2026-04-16 06:41 -33.63600 150.00838 4285 ft 32 kts 135°
2026-04-16 06:41 -33.63642 150.01465 4038 ft 117 kts 94°
2026-04-16 06:41 -33.63758 150.02607 3726 ft 148 kts 102°
2026-04-16 06:42 -33.64100 150.03788 3703 ft 147 kts 108°
2026-04-16 06:42 -33.64448 150.04940 3723 ft 152 kts 110°
2026-04-16 06:42 -33.64918 150.06249 2727 ft 191 kts 112°
2026-04-16 06:42 -33.65302 150.07686 2703 ft 175 kts 100°
2026-04-16 06:43 -33.65571 150.09077 2622 ft 164 kts 103°
2026-04-16 06:43 -33.65853 150.10345 2682 ft 148 kts 96°
2026-04-16 06:43 -33.66008 150.11537 2727 ft 142 kts 96°
2026-04-16 06:43 -33.66207 150.12685 2778 ft 142 kts 102°
2026-04-16 06:44 -33.66530 150.13860 2629 ft 153 kts 109°
2026-04-16 06:44 -33.66995 150.15030 2467 ft 161 kts 112°
2026-04-16 06:44 -33.67448 150.16299 2240 ft 167 kts 110°
2026-04-16 06:44 -33.68043 150.17452 1994 ft 167 kts 139°
2026-04-16 06:45 -33.68492 150.18564 2216 ft 134 kts 107°
2026-04-16 06:45 -33.68817 150.19526 2503 ft 121 kts 105°
2026-04-16 06:45 -33.69071 150.20445 2831 ft 112 kts 109°
2026-04-16 06:45 -33.69370 150.21378 2810 ft 142 kts 112°
2026-04-16 06:46 -33.69910 150.22518 2534 ft 157 kts 120°
2026-04-16 06:46 -33.70429 150.23629 2619 ft 152 kts 105°
2026-04-16 06:46 -33.70546 150.24947 2501 ft 162 kts 84°
2026-04-16 06:46 -33.70681 150.26160 2854 ft 114 kts 109°
2026-04-16 06:47 -33.70875 150.26847 3506 ft 92 kts 102°
2026-04-16 06:47 -33.71352 150.27577 2938 ft 150 kts 126°
2026-04-16 06:47 -33.71334 150.28725 2900 ft 41 kts 69°
2026-04-16 06:47 -33.71365 150.28878 3408 ft 13 kts 102°
2026-04-16 06:48 -33.71459 150.28815 3741 ft 19 kts 130°
2026-04-16 06:48 -33.71840 150.28838 3721 ft 98 kts 177°
2026-04-16 06:48 -33.72582 150.29170 3529 ft 120 kts 149°
2026-04-16 06:48 -33.73229 150.29828 3627 ft 123 kts 135°
2026-04-16 06:49 -33.73654 150.30752 3422 ft 143 kts 89°
2026-04-16 06:49 -33.73697 150.31917 2627 ft 165 kts 123°
2026-04-16 06:49 -33.74324 150.33084 2377 ft 162 kts 118°
2026-04-16 06:49 -33.74711 150.34466 1518 ft 190 kts 92°
2026-04-16 06:50 -33.75189 150.35647 1415 ft 122 kts 187°
2026-04-16 06:50 -33.75894 150.35727 1955 ft 85 kts 123°
2026-04-16 06:50 -33.75965 150.36332 2633 ft 75 kts 94°
2026-04-16 06:50 -33.75979 150.37074 3016 ft 103 kts 92°
2026-04-16 06:51 -33.76022 150.38200 2846 ft 153 kts 89°
2026-04-16 06:51 -33.76344 150.39436 2898 ft 162 kts 111°
2026-04-16 06:51 -33.76777 150.40742 2849 ft 174 kts 112°
2026-04-16 06:51 -33.77287 150.42064 2851 ft 177 kts 113°
2026-04-16 06:52 -33.78044 150.43275 2606 ft 187 kts 123°
2026-04-16 06:52 -33.78802 150.44563 2493 ft 186 kts 121°
2026-04-16 06:52 -33.79498 150.45833 2537 ft 182 kts 122°
2026-04-16 06:52 -33.80139 150.47179 2426 ft 187 kts 112°
2026-04-16 06:53 -33.80781 150.48551 2289 ft 188 kts 117°
2026-04-16 06:53 -33.81473 150.49870 2275 ft 179 kts 122°
2026-04-16 06:53 -33.82092 150.51149 2300 ft 180 kts 116°
2026-04-16 06:53 -33.82647 150.52530 2138 ft 183 kts 113°
2026-04-16 06:54 -33.83168 150.53895 2102 ft 178 kts 118°
2026-04-16 06:54 -33.83809 150.55177 1918 ft 187 kts 119°
2026-04-16 06:54 -33.84441 150.56458 1517 ft 182 kts 117°
2026-04-16 06:54 -33.85346 150.57394 1435 ft 167 kts 147°
2026-04-16 06:55 -33.86380 150.58276 1112 ft 181 kts 141°
2026-04-16 06:55 -33.87166 150.59447 976 ft 187 kts 117°
2026-04-16 06:55 -33.87803 150.60791 863 ft 182 kts 118°
2026-04-16 06:55 -33.88552 150.61966 934 ft 171 kts 127°
2026-04-16 06:56 -33.89296 150.63075 961 ft 170 kts 128°
2026-04-16 06:56 -33.90111 150.64146 844 ft 178 kts 130°
2026-04-16 06:56 -33.90956 150.65261 753 ft 180 kts 129°
2026-04-16 06:56 -33.91807 150.66349 813 ft 174 kts 129°
2026-04-16 06:57 -33.92560 150.67476 840 ft 175 kts 122°
2026-04-16 06:57 -33.93241 150.68688 891 ft 175 kts 122°
2026-04-16 06:57 -33.93897 150.69933 871 ft 178 kts 123°
2026-04-16 06:57 -33.94381 150.71281 940 ft 173 kts 101°
2026-04-16 06:58 -33.94526 150.72727 945 ft 177 kts 92°
2026-04-16 06:58 -33.94706 150.74200 955 ft 179 kts 95°
2026-04-16 06:58 -33.95002 150.75650 971 ft 179 kts 104°
2026-04-16 06:58 -33.95376 150.77064 1029 ft 175 kts 103°
2026-04-16 06:59 -33.95695 150.78466 1102 ft 174 kts 99°
2026-04-16 06:59 -33.96068 150.79877 1025 ft 178 kts 106°
2026-04-16 06:59 -33.96520 150.81291 960 ft 179 kts 106°
2026-04-16 06:59 -33.96881 150.82701 1032 ft 175 kts 104°
2026-04-16 07:00 -33.97297 150.84099 980 ft 179 kts 105°
2026-04-16 07:00 -33.97627 150.85521 824 ft 181 kts 99°
2026-04-16 07:00 -33.97965 150.86967 898 ft 175 kts 103°
2026-04-16 07:01 -33.97995 150.89830 1088 ft 158 kts 79°
2026-04-16 07:01 -33.97938 150.91008 1351 ft 127 kts 80°
2026-04-16 07:01 -33.97977 150.92004 1335 ft 113 kts 92°
2026-04-16 07:01 -33.98282 150.92877 1151 ft 117 kts 112°
2026-04-16 07:02 -33.98652 150.93510 1279 ft 78 kts 111°
2026-04-16 07:02 -33.98953 150.94110 812 ft 82 kts 110°
2026-04-16 07:02 -33.99212 150.94578 572 ft 49 kts 101°
2026-04-16 07:02 -33.99375 150.94768 352 ft 18 kts 101°
2026-04-16 07:03 -33.99425 150.94884 325 ft 16 kts 105°
2026-04-16 07:03 -33.99475 150.95002 301 ft 14 kts 111°
2026-04-16 07:03 -33.99507 150.95084 309 ft 8 kts 118°
2026-04-16 07:03 -33.99520 150.95130 266 ft 5 kts 126°
2026-04-16 07:04 -33.99531 150.95158 252 ft 2 kts 131°
2026-04-16 07:04 -33.99535 150.95164 249 ft 2 kts 110°
2026-04-16 07:04 -33.99533 150.95188 248 ft 4 kts 35°
2026-04-16 07:04 -33.99516 150.95200 248 ft 5 kts 30°
2026-04-16 07:05 -33.99466 150.95234 243 ft 6 kts 333°
2026-04-16 07:05 -33.99453 150.95220 242 ft 2 kts 297°
2026-04-16 07:05 -33.99452 150.95216 242 ft 1 kts 296°
2026-04-16 07:05 -33.99441 150.95196 242 ft 5 kts 282°
2026-04-16 07:06 -33.99448 150.95171 243 ft 1 kts 198°
2026-04-16 07:06 -33.99454 150.95168 245 ft 1 kts 153°
2026-04-16 07:06 -33.99461 150.95173 245 ft 1 kts 125°
2026-04-16 07:06 -33.99466 150.95181 245 ft 1 kts 123°
2026-04-16 07:07 -33.99469 150.95187 246 ft 1 kts 122°
2026-04-16 07:07 -33.99471 150.95191 246 ft 0 kts 122°
2026-04-16 07:07 -33.99472 150.95192 245 ft 0 kts 122°